[TLELIST] Archives

 

[TLELIST] Current TLEs

January 13th 2025 PDT

HST 1 20580U 90037B 25013.17438382 .00008318 00000-0 34138-3 0 9993 2 20580 28.4699 13.5510 0002689 175.2905 184.7714 15.22383138709277 ISS (ZARYA) 1 25544U 98067A 25013.18638580 .00013690 00000-0 24777-3 0 9999 2 25544 51.6382 354.8342 0002206 85.1369 274.9872 15.49960996491122 CXO 1 25867U 99040B 25010.77007610 .00000454 00000-0 00000-0 0 9999 2 25867 45.9725 138.0735 8652246 306.0969 0.2177 0.37805379 15347 ...Continue Reading

[TLELIST] Current TLEs

January 13th 2025 PDT

HST 1 20580U 90037B 25013.17438382 .00008318 00000-0 34138-3 0 9993 2 20580 28.4699 13.5510 0002689 175.2905 184.7714 15.22383138709277 ISS (ZARYA) 1 25544U 98067A 25013.18638580 .00013690 00000-0 24777-3 0 9999 2 25544 51.6382 354.8342 0002206 85.1369 274.9872 15.49960996491122 CXO 1 25867U 99040B 25010.77007610 .00000454 00000-0 00000-0 0 9999 2 25867 45.9725 138.0735 8652246 306.0969 0.2177 0.37805379 15347 ...Continue Reading

[TLELIST] Current TLEs

January 12th 2025 PDT

HST 1 20580U 90037B 25011.73216282 .00007952 00000-0 32626-3 0 9999 2 20580 28.4699 23.2823 0002725 160.5173 199.5525 15.22358735708792 ISS (ZARYA) 1 25544U 98067A 25011.77840788 .00015066 00000-0 26200-3 0 9999 2 25544 51.6405 1.8052 0006463 70.5355 348.3003 15.50995620490908 CXO 1 25867U 99040B 25010.77007610 .00000454 00000-0 00000-0 0 9999 2 25867 45.9725 138.0735 8652246 306.0969 0.2177 0.37805379 15347 ...Continue Reading

[TLELIST] Current TLEs

January 12th 2025 PDT

HST 1 20580U 90037B 25011.73216282 .00007952 00000-0 32626-3 0 9999 2 20580 28.4699 23.2823 0002725 160.5173 199.5525 15.22358735708792 ISS (ZARYA) 1 25544U 98067A 25011.77840788 .00015066 00000-0 26200-3 0 9999 2 25544 51.6405 1.8052 0006463 70.5355 348.3003 15.50995620490908 CXO 1 25867U 99040B 25010.77007610 .00000454 00000-0 00000-0 0 9999 2 25867 45.9725 138.0735 8652246 306.0969 0.2177 0.37805379 15347 ...Continue Reading

[TLELIST] Current TLEs

January 11th 2025 PDT

HST 1 20580U 90037B 25010.35547635 .00008552 00000-0 35174-3 0 9993 2 20580 28.4698 32.5713 0002772 146.7068 213.3700 15.22334898708584 ISS (ZARYA) 1 25544U 98067A 25010.86585038 .00015977 00000-0 27760-3 0 9995 2 25544 51.6383 6.3383 0006424 65.4334 294.7324 15.50967442490762 CXO 1 25867U 99040B 25010.77007610 .00000454 00000-0 00000-0 0 9999 2 25867 45.9725 138.0735 8652246 306.0969 0.2177 0.37805379 15347 ...Continue Reading

[TLELIST] Current TLEs

January 10th 2025 PDT

HST 1 20580U 90037B 25009.37211482 .00008679 00000-0 35725-3 0 9993 2 20580 28.4695 39.2060 0002810 137.3232 222.7580 15.22317805708435 ISS (ZARYA) 1 25544U 98067A 25010.50479572 .00015800 00000-0 27470-3 0 9994 2 25544 51.6409 8.1238 0006475 65.9825 76.9258 15.50958763490702 CXO 1 25867U 99040B 25010.77007610 .00000454 00000-0 00000-0 0 9999 2 25867 45.9725 138.0735 8652246 306.0969 0.2177 0.37805379 15347 ...Continue Reading

[TLELIST] Current TLEs

January 10th 2025 PDT

HST 1 20580U 90037B 25009.37211482 .00008679 00000-0 35725-3 0 9993 2 20580 28.4695 39.2060 0002810 137.3232 222.7580 15.22317805708435 ISS (ZARYA) 1 25544U 98067A 25010.50479572 .00015800 00000-0 27470-3 0 9994 2 25544 51.6409 8.1238 0006475 65.9825 76.9258 15.50958763490702 CXO 1 25867U 99040B 25010.77007610 .00000454 00000-0 00000-0 0 9999 2 25867 45.9725 138.0735 8652246 306.0969 0.2177 0.37805379 15347 ...Continue Reading

[TLELIST] Current TLEs

January 10th 2025 PDT

HST 1 20580U 90037B 25009.37211482 .00008679 00000-0 35725-3 0 9993 2 20580 28.4695 39.2060 0002810 137.3232 222.7580 15.22317805708435 ISS (ZARYA) 1 25544U 98067A 25010.50479572 .00015800 00000-0 27470-3 0 9994 2 25544 51.6409 8.1238 0006475 65.9825 76.9258 15.50958763490702 CXO 1 25867U 99040B 25010.77007610 .00000454 00000-0 00000-0 0 9999 2 25867 45.9725 138.0735 8652246 306.0969 0.2177 0.37805379 15347 ...Continue Reading

[TLELIST] Current TLEs

January 9th 2025 PDT

HST 1 20580U 90037B 25008.78209258 .00008544 00000-0 35168-3 0 9997 2 20580 28.4694 43.1870 0002816 131.5839 228.4996 15.22307310708346 ISS (ZARYA) 1 25544U 98067A 25009.01455836 .00018242 00000-0 31633-3 0 9994 2 25544 51.6404 15.5184 0006641 57.1706 39.7027 15.50915754490473 CXO 1 25867U 99040B 25010.77007610 .00000454 00000-0 00000-0 0 9999 2 25867 45.9725 138.0735 8652246 306.0969 0.2177 0.37805379 15347 ...Continue Reading

[TLELIST] Current TLEs

January 9th 2025 PDT

HST 1 20580U 90037B 25008.78209258 .00008544 00000-0 35168-3 0 9997 2 20580 28.4694 43.1870 0002816 131.5839 228.4996 15.22307310708346 ISS (ZARYA) 1 25544U 98067A 25009.01455836 .00018242 00000-0 31633-3 0 9994 2 25544 51.6404 15.5184 0006641 57.1706 39.7027 15.50915754490473 CXO 1 25867U 99040B 25010.77007610 .00000454 00000-0 00000-0 0 9999 2 25867 45.9725 138.0735 8652246 306.0969 0.2177 0.37805379 15347 ...Continue Reading
  • This mailing list is a public mailing list - anyone may join or leave, at any time.
  • This mailing list is announce-only.

International Space Station (ISS) / Hubble Space Telescope (HST) / Chandra X-Ray Observatory Orbital Data via EMAIL

Privacy Policy:

Private list